timestamp,surface_pressure_avg,surface_temp_avg,battery_voltage,lat,long
2022-12-11 00:09:00+00:00,323.8746,4.8,12.73,47.84626,-54.09684
2022-12-11 00:19:00+00:00,325.6763,4.8,12.73,47.84626,-54.09684
2022-12-11 00:29:00+00:00,326.7364,4.81,12.73,47.84626,-54.09684
2022-12-11 00:39:00+00:00,326.9496,4.82,12.73,47.84626,-54.09684
2022-12-11 00:49:00+00:00,327.6312,4.8,12.73,47.84626,-54.09684
2022-12-11 00:59:00+00:00,330.6878,4.8,12.73,47.84626,-54.09684
2022-12-11 01:09:00+00:00,330.9264,4.78,12.73,47.84626,-54.09684
2022-12-11 01:19:01+00:00,328.7863,4.8,12.65,47.84626,-54.09684
2022-12-11 01:29:01+00:00,329.5345,4.8,12.65,47.84626,-54.09684
2022-12-11 01:39:01+00:00,331.36800000000005,4.77,12.65,47.84626,-54.09684
2022-12-11 01:49:01+00:00,330.653,4.71,12.65,47.84626,-54.09684
2022-12-11 01:59:01+00:00,326.7729,4.71,12.65,47.84626,-54.09684
2022-12-11 02:09:01+00:00,324.743,4.73,12.65,47.84626,-54.09684
2022-12-11 02:19:00+00:00,323.7129,4.78,12.65,47.84626,-54.09684
2022-12-11 02:29:00+00:00,322.323,4.8,12.65,47.84626,-54.09684
2022-12-11 02:39:00+00:00,319.4363,4.8,12.65,47.84626,-54.09684
2022-12-11 02:49:00+00:00,318.8496,4.79,12.65,47.84626,-54.09684
2022-12-11 02:59:00+00:00,317.0014,4.8,12.65,47.84626,-54.09684
2022-12-11 03:09:00+00:00,314.8512,4.8,12.65,47.84626,-54.09684
2022-12-11 03:19:00+00:00,309.3464,4.8,12.65,47.84626,-54.09684
2022-12-11 03:29:00+00:00,305.3763,4.8,12.65,47.84626,-54.09684
2022-12-11 03:39:00+00:00,300.608,4.8,12.65,47.84626,-54.09684
2022-12-11 03:49:00+00:00,296.203,4.8,12.65,47.84626,-54.09684
2022-12-11 03:59:00+00:00,290.8763,4.8,12.65,47.84626,-54.09684
2022-12-11 04:09:00+00:00,285.4948,4.87,12.65,47.84626,-54.09684
2022-12-11 04:19:00+00:00,279.4363,4.9,12.65,47.84626,-54.09684
2022-12-11 04:29:00+00:00,273.5397,4.7,12.65,47.84626,-54.09684
2022-12-11 04:39:00+00:00,265.8064,4.69,12.65,47.84626,-54.09684
2022-12-11 04:49:00+00:00,258.6781,4.72,12.65,47.84626,-54.09684
2022-12-11 04:59:00+00:00,253.0814,4.82,12.65,47.84626,-54.09684
2022-12-11 05:09:00+00:00,245.6631,4.8,12.65,47.84626,-54.09684
2022-12-11 05:19:00+00:00,237.0664,4.7,12.65,47.84626,-54.09684
2022-12-11 05:29:00+00:00,232.9515,4.7,12.65,47.84626,-54.09684
2022-12-11 05:39:00+00:00,230.7131,4.7,12.65,47.84626,-54.09684
2022-12-11 05:49:00+00:00,225.1148,4.7,12.65,47.84626,-54.09684
2022-12-11 05:59:00+00:00,220.5015,4.6,12.65,47.84626,-54.09684
2022-12-11 06:09:00+00:00,218.5231,4.6,12.65,47.84626,-54.09684
2022-12-11 06:19:01+00:00,215.093,4.7,12.65,47.84626,-54.09684
2022-12-11 06:29:01+00:00,209.7664,4.6,12.65,47.84626,-54.09684
2022-12-11 06:39:01+00:00,208.8331,4.6,12.65,47.84626,-54.09684
2022-12-11 06:49:01+00:00,212.0464,4.67,12.65,47.84626,-54.09684
2022-12-11 06:59:01+00:00,211.9331,4.6,12.65,47.84626,-54.09684
2022-12-11 07:09:01+00:00,210.1097,4.6,12.65,47.84626,-54.09684
2022-12-11 07:19:00+00:00,212.0414,4.53,12.65,47.84626,-54.09684
2022-12-11 07:29:00+00:00,216.1464,4.6,12.65,47.84626,-54.09684
2022-12-11 07:39:00+00:00,215.9648,4.6,12.65,47.84626,-54.09684
2022-12-11 07:49:00+00:00,217.0614,4.52,12.65,47.84626,-54.09684
2022-12-11 07:59:00+00:00,222.0231,4.6,12.65,47.84626,-54.09684
2022-12-11 08:09:00+00:00,225.4881,4.61,12.65,47.84626,-54.09684
2022-12-11 08:19:01+00:00,223.2281,4.6,12.65,47.84626,-54.09684
2022-12-11 08:29:01+00:00,226.0531,4.6,12.65,47.84626,-54.09684
2022-12-11 08:39:01+00:00,233.8931,4.6,12.65,47.84626,-54.09684
2022-12-11 08:49:01+00:00,238.4831,4.6,12.65,47.84626,-54.09684
2022-12-11 08:59:01+00:00,241.8848,4.57,12.65,47.84626,-54.09684
2022-12-11 09:09:01+00:00,249.4364,4.51,12.65,47.84626,-54.09684
2022-12-11 09:19:01+00:00,257.9581,4.56,12.57,47.84626,-54.09684
2022-12-11 09:29:01+00:00,260.7314,4.59,12.57,47.84626,-54.09684
2022-12-11 09:39:01+00:00,261.8014,4.56,12.57,47.84626,-54.09684
2022-12-11 09:49:01+00:00,267.6548,4.56,12.57,47.84626,-54.09684
2022-12-11 09:59:01+00:00,273.6647,4.5,12.57,47.84626,-54.09684
2022-12-11 10:09:01+00:00,274.9747,4.5,12.57,47.84626,-54.09684
2022-12-11 10:19:00+00:00,278.4747,4.5,12.57,47.84626,-54.09684
2022-12-11 10:29:00+00:00,285.7681,4.5,12.57,47.84626,-54.09684
2022-12-11 10:39:00+00:00,291.1214,4.5,12.57,47.84626,-54.09684
2022-12-11 10:49:00+00:00,294.6697,4.4,12.57,47.84626,-54.09684
2022-12-11 10:59:00+00:00,301.2564,4.4,12.57,47.84626,-54.09684
2022-12-11 11:09:00+00:00,309.703,4.4,12.57,47.84626,-54.09684
2022-12-11 11:19:00+00:00,314.1297,4.4,12.57,47.84626,-54.09684
2022-12-11 11:29:00+00:00,318.3113,4.4,12.57,47.84626,-54.09684
2022-12-11 11:39:00+00:00,326.0297,4.37,12.57,47.84626,-54.09684
2022-12-11 11:49:00+00:00,333.1497,4.34,12.57,47.84626,-54.09684
2022-12-11 11:59:00+00:00,339.2513,4.36,12.57,47.84626,-54.09684
2022-12-11 12:09:00+00:00,343.4645,4.36,12.57,47.84626,-54.09684
2022-12-11 12:19:00+00:00,348.19300000000015,4.33,12.57,47.84626,-54.09684
2022-12-11 12:29:00+00:00,353.978,4.31,12.57,47.84626,-54.09684
2022-12-11 12:39:00+00:00,359.1746,4.3,12.57,47.84626,-54.09684
2022-12-11 12:49:00+00:00,360.3846,4.3,12.57,47.84626,-54.09684
2022-12-11 12:59:00+00:00,360.4796,4.32,12.57,47.84626,-54.09684
2022-12-11 13:09:00+00:00,362.2563,4.31,12.57,47.84626,-54.09684
2022-12-11 13:19:00+00:00,363.5579,4.3,12.89,47.84626,-54.09684
2022-12-11 13:29:00+00:00,363.36800000000005,4.3,12.89,47.84626,-54.09684
2022-12-11 13:39:00+00:00,364.3663,4.33,12.89,47.84626,-54.09684
2022-12-11 13:49:00+00:00,366.0245,4.35,12.89,47.84626,-54.09684
2022-12-11 13:59:00+00:00,368.0363,4.37,12.89,47.84626,-54.09684
2022-12-11 14:09:00+00:00,368.6579,4.3,12.89,47.84626,-54.09684
2022-12-11 14:19:00+00:00,368.1113,4.3,13.37,47.84626,-54.09684
2022-12-11 14:29:00+00:00,369.2829,4.3,13.37,47.84626,-54.09684
2022-12-11 14:39:00+00:00,366.48800000000006,4.31,13.37,47.84626,-54.09684
2022-12-11 14:49:00+00:00,361.4729,4.3,13.37,47.84626,-54.09684
2022-12-11 14:59:00+00:00,358.7447,4.3,13.37,47.84626,-54.09684
2022-12-11 15:09:00+00:00,356.5979,4.34,13.37,47.84626,-54.09684
2022-12-11 15:19:00+00:00,352.6429,4.34,13.29,47.84626,-54.09684
2022-12-11 15:29:00+00:00,347.1346,4.4,13.29,47.84626,-54.09684
2022-12-11 15:39:00+00:00,344.778,4.4,13.29,47.84626,-54.09684
2022-12-11 15:49:00+00:00,341.4097,4.4,13.29,47.84626,-54.09684
2022-12-11 15:59:00+00:00,336.05800000000005,4.46,13.29,47.84626,-54.09684
2022-12-11 16:09:00+00:00,326.8663,4.4,13.29,47.84626,-54.09684
2022-12-11 16:19:00+00:00,321.1313,4.4,13.21,47.84626,-54.09684
2022-12-11 16:29:00+00:00,315.7197,4.4,13.21,47.84626,-54.09684
2022-12-11 16:39:00+00:00,307.2963,4.4,13.21,47.84626,-54.09684
2022-12-11 16:49:00+00:00,298.5746,4.39,13.21,47.84626,-54.09684
2022-12-11 16:59:00+00:00,293.3547,4.4,13.21,47.84626,-54.09684
2022-12-11 17:09:00+00:00,288.2331,4.4,13.21,47.84626,-54.09684
2022-12-11 17:19:01+00:00,278.9147,4.4,13.37,47.84626,-54.09684
2022-12-11 17:29:01+00:00,272.0147,4.4,13.37,47.84626,-54.09684
2022-12-11 17:39:01+00:00,265.6781,4.4,13.37,47.84626,-54.09684
2022-12-11 17:49:01+00:00,257.548,4.4,13.37,47.84626,-54.09684
2022-12-11 17:59:01+00:00,246.3098,4.4,13.37,47.84626,-54.09684
2022-12-11 18:09:01+00:00,240.3381,4.4,13.37,47.84626,-54.09684
2022-12-11 18:19:00+00:00,233.5915,4.4,13.13,47.84626,-54.09684
2022-12-11 18:29:00+00:00,224.9498,4.4,13.13,47.84626,-54.09684
2022-12-11 18:39:00+00:00,218.5864,4.4,13.13,47.84626,-54.09684
2022-12-11 18:49:00+00:00,215.4248,4.4,13.13,47.84626,-54.09684
2022-12-11 18:59:00+00:00,210.0198,4.4,13.13,47.84626,-54.09684
2022-12-11 19:09:00+00:00,205.4915,4.4,13.13,47.84626,-54.09684
2022-12-11 19:19:01+00:00,205.4215,4.4,12.89,47.84626,-54.09684
2022-12-11 19:29:01+00:00,205.5964,4.4,12.89,47.84626,-54.09684
2022-12-11 19:39:01+00:00,207.5814,4.4,12.89,47.84626,-54.09684
2022-12-11 19:49:01+00:00,210.4398,4.36,12.89,47.84626,-54.09684
2022-12-11 19:59:01+00:00,211.0931,4.3,12.89,47.84626,-54.09684
2022-12-11 20:09:01+00:00,212.2381,4.29,12.89,47.84626,-54.09684
2022-12-11 20:19:00+00:00,216.5898,4.25,12.73,47.84626,-54.09684
2022-12-11 20:29:00+00:00,222.7281,4.26,12.73,47.84626,-54.09684
2022-12-11 20:39:00+00:00,225.1414,4.25,12.73,47.84626,-54.09684
2022-12-11 20:49:00+00:00,226.8615,4.2,12.73,47.84626,-54.09684
2022-12-11 20:59:00+00:00,232.2731,4.3,12.73,47.84626,-54.09684
2022-12-11 21:09:00+00:00,235.6697,4.3,12.73,47.84626,-54.09684
2022-12-11 21:19:01+00:00,234.9998,4.3,12.73,47.84626,-54.09684
2022-12-11 21:29:01+00:00,237.7914,4.3,12.73,47.84626,-54.09684
2022-12-11 21:39:01+00:00,246.3447,4.3,12.73,47.84626,-54.09684
2022-12-11 21:49:01+00:00,253.4848,4.28,12.73,47.84626,-54.09684
2022-12-11 21:59:01+00:00,255.2447,4.22,12.73,47.84626,-54.09684
2022-12-11 22:09:01+00:00,257.5648,4.2,12.73,47.84626,-54.09684
2022-12-11 22:19:00+00:00,261.3648,4.22,12.65,47.84626,-54.09684
2022-12-11 22:29:00+00:00,264.5664,4.25,12.65,47.84626,-54.09684
2022-12-11 22:39:00+00:00,268.7947,4.28,12.65,47.84626,-54.09684
2022-12-11 22:49:00+00:00,274.7814,4.2,12.65,47.84626,-54.09684
2022-12-11 22:59:00+00:00,279.3247,4.28,12.65,47.84626,-54.09684
2022-12-11 23:09:00+00:00,282.6631,4.3,12.65,47.84626,-54.09684
2022-12-11 23:19:00+00:00,284.838,4.3,12.65,47.84626,-54.09684
2022-12-11 23:29:00+00:00,288.8347,4.3,12.65,47.84626,-54.09684
2022-12-11 23:39:00+00:00,293.8063,4.3,12.65,47.84626,-54.09684
2022-12-11 23:49:00+00:00,298.2947,4.3,12.65,47.84626,-54.09684
2022-12-11 23:59:00+00:00,299.6564,4.3,12.65,47.84626,-54.09684
